Tracking 17147 objects as of 4-July-2015
HD Live streaming from Space Station

SL-8 R/B

Track SL-8 R/B now!
10-day predictions
SL-8 R/B is classified as:


NORAD ID: 13917
Int'l Code: 1983-021B
Perigee: 960.5 km
Apogee: 1,004.5 km
Inclination: 82.9 °
Period: 104.6 minutes
Semi major axis: 7353 km
RCS: 4.8067 m2 (large)
Launch date: March 24, 1983
Source: Commonwealth of Independent States (former USSR) (CIS)

Note: This is a ROCKET BODY
Your satellite tracking list
Your tracking list is empty





NASA's NSSDC Master Catalog

Two Line Element Set (TLE):
1 13917U 83021B   15184.20306769  .00000103  00000-0  88275-4 0  9995
2 13917 082.9433 058.0049 0029929 090.8551 024.1790 13.76764593621202

Source of the keplerian elements: AFSPC

N2YO: 442